CAPE
8 49 331 821 202 226 66 68 86 102 20 1 0 0 9 64 110 0 138 333 719 820 1272 1563 1701 1717 1693 1730 1739 1681 1620 1653 1645 1662 1618 1564 1570 1361 1430 1479 1633 1591 1296 911 1355 1299 1301 1130 1231
0 193 862 1060 164 80 62 91 77 34 232 34 0 0 13 4 16 29 451 769 611 931 886 1543 1525 1632 1672 1605 1463 1563 1591 1475 1567 1586 1614 1571 1666 1443 1498 1387 1155 940 886 1086 1163 1155 1295 1289 1059
34 0 62 110 214 80 50 38 15 34 297 93 0 0 7 13 49 316 536 519 841 896 981 1474 1581 1585 1468 1446 1663 1526 1450 1571 1461 1417 1617 1659 1511 1442 1431 1153 1153 1085 1329 1454 1440 1410 1367 1258 1146
361 806 643 125 196 167 52 25 40 92 0 0 120 29 25 91 294 400 616 905 888 905 1044 1426 1640 1556 1403 1497 1482 1693 1616 1693 1574 1677 1705 1636 1561 1293 1134 1258 1293 1337 1305 1305 1271 1108 911 945 911
0 0 117 163 300 171 135 136 183 123 0 16 175 197 162 85 269 508 588 907 870 716 1050 1384 1418 1510 1609 1589 1693 1507 1603 1614 1497 1710 1317 993 880 794 917 1208 1242 1192 1226 1205 1068 871 852 813 499
5 0 169 156 314 209 163 214 236 236 0 94 216 201 198 153 307 481 694 792 810 703 909 1182 1388 1516 1465 1764 1433 1543 1537 1588 1678 1541 915 685 575 442 456 558 771 893 912 915 791 970 866 636 421
30 119 214 212 271 269 152 191 307 87 0 108 129 103 129 109 87 483 708 755 711 737 799 884 700 684 1593 1639 1499 1588 1514 1818 1317 804 622 523 364 255 285 450 595 589 569 599 605 738 630 553 432
9 208 306 240 185 264 192 167 109 13 0 226 133 48 69 17 10 221 497 615 558 408 95 286 1032 1025 337 1321 1157 1280 1368 1161 574 496 357 257 151 164 173 146 219 310 298 290 370 484 460 410 418
52 238 306 160 163 105 99 106 0 0 0 278 208 41 13 12 0 98 292 468 365 83 106 641 783 851 18 481 664 705 705 466 408 349 388 286 128 75 52 32 22 98 152 185 363 531 574 448 576
101 177 211 156 134 164 89 72 5 0 37 156 65 0 0 7 0 1 5 0 0 0 259 591 774 505 1 75 99 113 225 50 62 184 297 327 253 100 129 245 239 406 473 921 991 790 639 706 682
44 190 201 161 234 128 57 68 37 23 20 85 9 0 0 16 0 0 0 0 0 0 292 413 476 44 0 0 0 0 15 137 241 377 164 657 1013 1142 160 0 278 19 101 1 59 629 0 863 1120
27 65 260 244 241 152 67 132 112 61 45 54 0 0 0 0 8 0 0 0 0 0 95 83 53 19 0 0 0 0 0 251 1184 301 147 184 200 127 0 0 36 70 0 0 35 256 9 551 687
121 133 94 142 34 17 51 128 90 66 56 31 11 0 0 0 1 11 0 0 0 0 0 0 0 0 0 0 0 0 68 796 1425 1503 78 0 0 84 0 0 0 0 0 0 71 462 12 538 559
107 76 91 29 17 60 54 33 14 25 14 1 0 0 0 0 13 0 0 0 0 0 0 0 0 23 90 95 651 310 278 1008 867 1426 284 123 633 569 467 5 58 21 40 0 119 742 581 1050 562
96 34 96 42 49 68 94 157 51 15 0 0 0 0 0 3 15 0 0 0 0 0 0 0 0 149 107 171 292 331 1 0 432 1019 772 1006 1304 1078 1361 458 11 242 56 0 346 533 320 377 412
90 31 92 62 94 126 34 77 86 37 37 0 0 0 2 21 13 3 0 0 0 0 0 0 0 94 263 145 121 277 517 214 247 1107 562 373 230 159 172 431 879 729 586 493 692 510 288 30 378
17 11 26 0 0 83 43 1 65 22 26 0 0 1 7 18 14 10 0 0 0 0 0 0 0 0 350 0 12 111 301 40 9 227 853 584 731 635 370 368 650 659 918 1442 1276 1174 909 988 809
33 1 20 24 54 70 43 6 21 126 248 36 5 25 1 15 6 0 0 0 0 0 0 0 0 7 0 226 36 53 0 125 26 0 181 953 740 529 612 464 721 778 545 358 565 1022 795 661 328
0 4 60 63 93 99 131 74 195 269 262 212 58 65 41 33 6 0 0 0 0 0 0 0 0 0 0 24 0 24 0 0 0 0 116 828 903 718 780 654 654 823 99 0 0 669 196 156 75
25 60 27 21 126 107 101 146 186 266 177 178 192 213 138 42 22 1 0 0 0 0 0 0 0 0 70 52 11 0 0 228 443 229 399 1107 1159 1590 1611 1262 1081 1120 443 204 488 261 114 146 68
73 39 0 8 22 229 66 139 118 24 83 337 328 198 269 125 71 0 0 0 0 0 0 14 0 253 124 277 226 231 695 432 647 779 1075 1195 1251 1316 1061 1133 1088 903 793 584 334 230 62 0 72
46 58 0 45 50 84 11 61 69 0 23 172 0 117 325 238 200 63 0 7 0 0 0 11 146 321 241 364 395 614 333 513 401 353 418 516 455 351 580 584 683 682 591 368 228 176 88 150 85
146 44 63 43 132 108 51 10 22 0 35 50 36 107 188 243 259 181 123 216 86 52 40 71 84 363 699 370 371 679 705 352 221 228 183 248 144 0 10 37 66 84 30 0 0 0 0 0 0
121 70 34 193 84 52 20 0 5 1 51 11 9 22 124 172 216 333 310 367 531 377 258 306 272 443 1028 1151 783 595 522 229 153 148 217 220 45 1 0 4 0 0 0 0 0 0 0 0 0
119 68 109 154 84 20 99 9 2 28 20 24 0 18 9 162 389 530 496 557 728 709 696 787 868 963 1081 917 553 255 163 125 69 35 148 119 18 2 3 0 0 0 0 0 0 0 0 0 0
1 9 168 102 3 33 50 81 10 54 67 0 0 7 349 1219 740 549 522 788 971 1195 1071 1765 1621 940 525 165 76 10 0 0 0 0 2 2 2 1 2 0 0 0 0 0 0 0 0 0 0
7 25 0 0 0 0 173 239 176 74 43 2 0 0 1298 1601 1034 881 1109 1185 1258 1234 976 1174 593 347 128 0 0 0 0 0 0 0 1 1 2 0 0 0 0 0 0 0 0 0 0 0 0
78 0 0 0 0 0 4 183 91 40 0 0 0 37 1214 1276 963 709 765 769 621 380 114 12 3 0 0 0 0 0 0 0 0 0 1 0 0 0 0 0 0 0 0 0 0 0 0 0 0
28 59 0 0 0 0 0 301 219 29 0 0 0 882 693 751 716 677 564 425 148 49 6 4 0 0 0 0 0 0 0 0 0 0 0 0 0 0 0 0 0 0 0 0 0 0 0 0 0
0 0 0 0 0 0 0 521 455 0 0 0 480 513 382 399 355 277 407 410 207 47 0 0 1 3 0 0 0 2 0 1 0 1 2 1 1 0 0 0 0 0 0 0 0 0 0 0 0
CIN
-228 -262 -197 -152 -51 -40 -22 -10 -18 -15 -96 -34 -0 -0 -209 -139 -95 -0 -186 -121 -81 -70 -21 -1 -0 -0 -0 -0 -0 -0 -0 -0 -0 -0 -0 -0 -0 -0 -0 -0 -0 -0 -0 -4 -0 -0 -1 -14 -10
-0 -238 -96 -39 -17 -35 -16 -16 -24 -62 -14 -135 -0 -0 -209 -133 -308 -282 -91 -51 -79 -72 -62 -9 -4 -0 -0 -0 -0 -0 -0 -0 -0 -0 -0 -0 -0 -0 -0 -0 -0 -10 -8 -0 -0 -1 -2 -10 -21
-249 -0 -104 -91 -25 -48 -31 -31 -56 -45 -20 -42 -0 -0 -198 -266 -213 -116 -48 -63 -72 -67 -58 -11 -4 -3 -9 -3 -0 -0 -0 -0 -0 -0 -0 -0 -0 -0 -0 -0 -0 -5 -0 -0 -0 -0 -0 -8 -18
-146 -109 -65 -53 -10 -15 -27 -45 -43 -44 -0 -0 -112 -206 -224 -149 -108 -98 -52 -44 -78 -79 -61 -25 -5 -4 -12 -0 -0 -0 -0 -0 -0 -0 -0 -0 -0 -0 -1 -1 -2 -1 -0 -0 -1 -9 -34 -38 -52
-0 -0 -19 -57 -13 -14 -11 -11 -35 -19 -0 -126 -98 -98 -92 -103 -104 -65 -58 -74 -99 -114 -78 -34 -20 -9 -0 -0 -0 -0 -1 -0 -0 -0 -0 -12 -17 -30 -19 -9 -7 -11 -11 -11 -32 -54 -58 -60 -78
-12 -0 -11 -34 -7 -23 -12 -29 -24 -19 -0 -109 -108 -93 -70 -51 -77 -47 -65 -79 -98 -110 -90 -59 -21 -9 -7 -0 -0 -0 -0 -0 -0 -0 -19 -39 -60 -87 -79 -68 -50 -41 -39 -49 -72 -65 -77 -88 -101
-107 -69 -45 -28 -22 -27 -31 -23 -31 -24 -0 -75 -131 -131 -78 -45 -64 -49 -47 -63 -95 -89 -78 -72 -92 -97 -0 -0 -0 -0 -0 -0 -9 -44 -53 -76 -109 -129 -125 -100 -89 -100 -103 -112 -118 -108 -121 -110 -115
-143 -81 -47 -10 -14 -34 -52 -54 -5 -33 -0 -60 -118 -136 -103 -97 -67 -29 -31 -70 -78 -96 -287 -186 -40 -32 -178 -8 -18 -15 -20 -36 -81 -88 -117 -136 -147 -143 -144 -163 -139 -115 -127 -129 -126 -119 -129 -142 -132
-277 -67 -25 -31 -23 -3 -6 -46 -0 -0 -0 -24 -45 -144 -123 -128 -0 -20 -48 -57 -93 -216 -198 -71 -52 -48 -161 -97 -82 -79 -76 -87 -96 -109 -109 -139 -166 -162 -185 -199 -126 -132 -116 -132 -112 -111 -111 -127 -111
-153 -79 -16 -33 -43 -62 -16 -31 -31 -0 -13 -51 -100 -0 -0 -97 -0 -2 -32 -0 -0 -0 -87 -54 -58 -81 -27 -222 -203 -200 -137 -234 -208 -188 -160 -141 -130 -147 -125 -91 -66 -105 -119 -56 -41 -110 -135 -123 -126
-162 -42 -32 -43 -19 -47 -18 -28 -41 -43 -44 -80 -146 -0 -0 -116 -0 -0 -0 -0 -0 -0 -66 -42 -53 -169 -0 -0 -0 -0 -147 -127 -144 -140 -163 -95 -71 -32 -99 -0 -130 -207 -179 -11 -283 -153 -0 -91 -79
-94 -48 -12 -9 -7 -27 -2 -40 -10 -13 -29 -80 -0 -0 -0 -0 -54 -0 -0 -0 -0 -0 -86 -101 -128 -64 -0 -0 -0 -0 -0 -86 -51 -87 -123 -147 -128 -103 -0 -0 -182 -200 -0 -0 -185 -165 -233 -72 -63
-115 -34 -8 -17 -17 -17 -8 -75 -18 -7 -41 -82 -103 -0 -0 -0 -6 -13 -0 -0 -0 -0 -0 -0 -0 -0 -0 -0 -0 -0 -90 -33 -22 -43 -159 -0 -0 -121 -0 -0 -0 -0 -0 -0 -116 -125 -90 -61 -34
-50 -14 -20 -9 -11 -4 -16 -15 -8 -20 -36 -6 -0 -0 -0 -0 -5 -0 -0 -0 -0 -0 -0 -0 -0 -32 -69 -65 -19 -25 -38 -35 -30 -34 -83 -63 -50 -71 -82 -47 -155 -144 -194 -0 -92 -120 -116 -69 -56
-46 -7 -6 -10 -4 -21 -45 -27 -65 -28 -0 -0 -0 -0 -0 -7 -5 -6 -0 -0 -0 -0 -0 -0 -0 -83 -54 -41 -39 -33 -11 -0 -35 -16 -47 -63 -31 -27 -51 -106 -74 -148 -186 -0 -116 -57 -71 -61 -47
-44 -32 -15 -20 -6 -21 -27 -27 -81 -74 -49 -0 -0 -0 -6 -6 -7 -10 -0 -0 -0 -0 -0 -0 -0 -91 -35 -60 -48 -40 -24 -56 -58 -35 -19 -31 -41 -27 -38 -35 -24 -88 -22 -52 -47 -67 -63 -61 -47
-78 -27 -37 -11 -0 -30 -47 -11 -69 -57 -43 -0 -0 -0 -7 -4 -19 -26 -0 -0 -0 -0 -0 -0 -0 -0 -51 -0 -14 -46 -36 -75 -25 -26 -32 -29 -31 -30 -41 -44 -32 -19 -41 -40 -30 -38 -50 -45 -61
-40 -24 -38 -34 -26 -28 -47 -50 -91 -79 -47 -38 -23 -87 -2 -5 -11 -7 -0 -0 -0 -0 -0 -0 -0 -69 -0 -66 -57 -52 -0 -61 -8 -0 -36 -34 -32 -30 -29 -45 -51 -57 -64 -58 -72 -40 -49 -71 -73
-0 -67 -43 -38 -45 -31 -42 -30 -68 -59 -61 -46 -25 -63 -62 -45 -19 -0 -0 -0 -0 -0 -0 -0 -0 -0 -0 -105 -0 -46 -0 -0 -0 -0 -27 -16 -28 -22 -32 -50 -59 -68 -88 -0 -0 -64 -58 -79 -107
-95 -93 -76 -111 -49 -14 -33 -59 -70 -36 -109 -99 -88 -42 -49 -34 -38 -18 -0 -0 -0 -0 -0 -0 -0 -0 -160 -148 -31 -0 -0 -25 -17 -36 -26 -25 -20 -29 -38 -36 -51 -58 -77 -50 -106 -72 -93 -92 -149
-79 -106 -0 -169 -108 -50 -82 -52 -119 -117 -158 -99 -63 -174 -48 -56 -101 -0 -0 -0 -0 -0 -0 -93 -0 -107 -128 -81 -49 -33 -14 -15 -50 -67 -51 -60 -43 -64 -52 -39 -50 -64 -71 -62 -91 -116 -121 -0 -112
-45 -161 -0 -99 -120 -33 -65 -42 -127 -33 -266 -165 -2 -65 -82 -58 -116 -120 -0 -187 -0 -0 -0 -213 -123 -92 -79 -65 -42 -23 -19 -28 -114 -122 -133 -130 -109 -114 -82 -103 -71 -82 -77 -85 -100 -125 -160 -136 -108
-14 -82 -107 -74 -44 -24 -71 -99 -208 -18 -141 -180 -213 -176 -104 -65 -72 -112 -102 -109 -162 -189 -196 -166 -166 -103 -83 -82 -68 -31 -34 -116 -147 -140 -130 -132 -172 -12 -189 -148 -118 -167 -168 -0 -0 -0 -0 -0 -0
-13 -61 -111 -78 -95 -31 -127 -0 -58 -43 -174 -97 -115 -167 -111 -74 -52 -59 -86 -104 -105 -169 -189 -155 -153 -120 -81 -45 -48 -66 -100 -160 -173 -173 -135 -128 -180 -53 -0 -75 -0 -0 -0 -0 -0 -0 -0 -0 -0
-55 -38 -57 -21 -52 -35 -96 -110 -27 -105 -274 -296 -132 -197 -290 -73 -53 -66 -70 -72 -92 -112 -137 -141 -141 -124 -100 -121 -161 -205 -195 -194 -212 -286 -160 -190 -257 -0 -0 -0 -0 -0 -0 -0 -0 -0 -0 -0 -0
-10 -94 -21 -9 -3 -27 -205 -111 -73 -276 -327 -0 -0 -67 -85 -74 -90 -86 -49 -59 -74 -52 -75 -79 -131 -154 -218 -310 -362 -360 -6 -0 -0 -0 -65 -35 -23 -0 -0 -0 -0 -0 -0 -0 -0 -0 -0 -0 -0
-74 -104 -0 -0 -0 -0 -87 -114 -271 -371 -342 -26 -0 -0 -61 -205 -257 -307 -310 -306 -252 -256 -290 -198 -309 -352 -425 -0 -0 -0 -0 -0 -0 -0 -0 -0 -0 -0 -0 -0 -0 -0 -0 -0 -0 -0 -0 -0 -0
-62 -0 -0 -0 -0 -0 -10 -56 -80 -255 -0 -0 -0 -90 -109 -265 -371 -442 -437 -420 -458 -517 -571 -373 -389 -0 -0 -0 -0 -0 -0 -0 -0 -0 -0 -0 -0 -0 -0 -0 -0 -0 -0 -0 -0 -0 -0 -0 -0
-29 -50 -0 -0 -0 -0 -0 -27 -140 -204 -0 -0 -0 -190 -223 -286 -307 -394 -410 -445 -560 -633 -60 -0 -0 -0 -0 -0 -0 -0 -0 -0 -0 -0 -0 -0 -0 -0 -0 -0 -0 -0 -0 -0 -0 -0 -0 -0 -0
-0 -0 -0 -0 -0 -0 -0 -55 -222 -12 -0 -0 -260 -270 -330 -318 -321 -368 -380 -422 -487 -550 -0 -0 -0 -0 -0 -0 -0 -0 -1 -0 -0 -0 -0 -0 -0 -0 -0 -0 -0 -0 -0 -0 -0 -0 -0 -0 -0
Wind_Speed
16 15 15 15 20 23 25 30 30 29 27 26 25 22 22 20 19 19 27 26 24 21 18 16 18 18 17 15 16 14 12 6 4 1 12 29 30 30 30 31 31 31 30 29 28 28 27 25 25
15 16 15 21 26 29 28 27 26 25 25 26 27 24 22 23 23 27 26 24 22 22 18 15 17 19 16 14 13 14 9 4 2 10 28 27 30 30 29 30 30 30 30 30 29 27 25 22 24
13 12 17 20 21 26 28 27 28 27 25 24 24 25 23 26 26 25 28 25 24 21 20 19 19 19 18 15 12 10 8 3 4 19 24 26 27 27 28 29 29 29 29 29 28 26 25 22 21
12 13 13 18 28 27 27 27 28 25 25 25 24 25 28 26 25 28 28 24 23 20 21 21 20 18 16 16 15 8 5 6 17 19 18 19 24 27 27 27 28 28 28 28 27 26 25 24 23
9 12 14 23 26 29 27 26 24 26 26 25 26 29 28 27 27 29 27 24 22 20 22 21 20 19 17 16 11 5 7 12 18 21 19 22 25 26 26 26 27 27 27 26 25 25 25 25 25
12 19 21 26 29 28 27 26 25 27 28 28 29 29 28 28 29 26 26 23 23 24 23 22 23 24 21 13 8 4 8 19 24 22 21 23 25 26 26 27 26 25 24 23 23 23 23 23 22
13 23 20 20 27 28 24 24 27 26 28 27 28 29 28 28 26 27 26 24 24 23 24 25 26 25 22 19 16 12 20 25 26 23 22 24 25 26 26 25 25 25 24 23 21 21 21 20 19
23 17 21 23 26 27 27 23 24 27 26 28 27 24 27 28 26 26 25 26 26 27 27 27 27 26 25 26 27 28 29 29 29 26 24 25 26 24 23 23 23 23 24 23 21 19 17 17 17
16 21 19 22 22 26 25 20 21 24 28 26 19 26 28 29 27 27 28 28 26 27 26 28 29 28 27 27 28 29 29 29 29 27 24 25 23 22 23 23 23 22 20 19 18 16 14 13 14
20 17 21 24 21 26 24 24 24 25 25 25 27 28 28 28 27 27 26 28 27 26 26 29 29 29 29 29 29 29 29 29 28 27 26 24 19 23 21 17 18 18 17 14 12 13 13 12 12
18 19 20 22 21 21 22 25 25 23 21 23 26 26 27 27 26 26 25 25 25 25 27 27 28 30 29 30 30 29 28 26 26 25 8 8 16 15 9 9 19 17 12 12 13 14 13 12 11
18 18 17 20 20 20 21 22 17 17 19 22 23 25 25 25 25 25 25 25 26 26 28 27 26 29 28 29 28 28 27 25 23 11 6 9 9 8 20 18 7 15 13 15 12 12 12 11 12
18 17 18 20 20 20 22 17 14 15 20 20 22 23 23 24 23 23 24 25 26 26 28 26 25 27 25 26 26 26 25 24 19 18 14 3 13 14 22 21 17 18 18 15 17 13 13 12 12
19 18 17 17 19 20 18 18 17 14 18 19 20 22 22 23 23 22 21 23 23 22 24 20 23 20 14 12 19 17 17 17 17 16 17 19 13 16 13 17 18 16 17 16 15 13 12 18 16
14 15 17 17 19 17 19 14 13 15 16 16 17 20 21 21 19 18 18 20 21 21 21 20 22 16 15 24 16 10 16 14 15 16 16 16 13 12 16 15 16 15 13 12 11 16 20 20 20
16 10 10 6 9 14 12 11 15 7 12 12 14 19 20 21 17 15 16 16 18 18 19 17 20 19 16 26 26 10 13 17 13 14 12 12 11 11 14 19 18 13 15 15 19 20 22 18 22
17 5 3 8 17 7 9 11 19 15 14 13 13 16 17 17 16 15 14 15 14 16 17 17 17 17 18 19 13 5 8 17 11 9 12 9 10 10 13 16 20 21 21 22 22 21 19 21 26
8 14 12 11 20 16 7 11 14 14 13 16 13 14 15 15 14 16 15 14 12 14 16 14 16 16 15 15 9 6 8 7 6 5 8 4 6 9 12 15 16 18 20 20 24 25 24 24 26
12 12 12 22 25 25 18 5 10 15 12 17 15 16 15 13 15 17 17 16 15 14 13 11 14 13 12 11 10 4 7 6 5 7 12 5 7 9 13 15 17 19 21 20 23 22 25 26 27
11 17 27 27 24 22 13 9 20 27 22 11 21 18 17 17 17 19 18 17 17 16 14 12 10 12 10 9 7 4 5 11 12 7 9 6 8 12 14 15 19 21 19 21 21 23 23 23 25
16 18 5 24 21 13 15 21 20 18 25 19 25 27 21 21 19 22 21 19 18 16 15 14 14 12 10 7 4 6 12 14 18 18 16 15 18 19 20 20 20 21 19 19 20 21 22 23 23
17 11 11 14 7 20 19 19 19 22 23 12 13 30 33 24 18 22 20 19 19 18 17 17 16 13 11 6 2 8 11 14 15 17 17 18 20 23 25 23 21 19 19 18 19 19 19 19 21
8 10 10 8 17 20 22 25 27 19 14 9 20 27 30 23 18 19 20 19 20 19 15 15 16 11 10 10 7 5 12 14 15 17 19 18 22 25 24 21 18 18 19 19 18 18 18 18 18
18 14 10 20 18 25 16 22 31 21 10 9 17 23 14 19 9 17 17 18 17 19 17 15 13 12 6 4 5 6 9 14 18 18 18 13 14 17 18 13 13 15 17 16 16 18 19 18 17
24 22 25 25 21 27 11 23 16 4 17 17 23 28 37 38 13 13 15 15 12 16 15 12 7 4 4 6 6 8 10 12 15 17 15 12 15 14 12 11 12 12 15 13 15 15 19 20 19
35 20 23 30 36 31 16 25 19 11 12 14 20 27 12 15 7 7 10 11 3 3 7 4 5 4 4 7 9 11 13 13 14 20 16 15 13 11 11 10 11 10 12 15 15 16 16 17 18
23 27 23 32 33 30 19 17 18 14 11 10 13 19 8 16 16 11 10 5 4 5 5 3 3 5 4 7 11 13 14 16 16 18 17 16 15 14 12 10 11 11 12 14 13 15 16 13 16
11 17 27 28 30 30 26 22 22 11 8 6 8 11 14 13 13 11 8 8 8 8 7 5 5 5 7 9 12 12 13 14 14 15 16 15 15 15 14 13 14 14 12 12 12 14 15 15 15
21 16 22 26 24 26 32 27 13 5 3 4 6 12 13 13 14 10 9 10 10 9 7 7 7 8 9 11 12 12 13 12 12 12 13 14 15 15 14 14 13 14 13 15 16 14 14 14 15
25 26 24 29 31 30 28 24 11 6 6 7 11 12 11 12 11 11 11 10 10 8 7 7 10 11 11 10 12 11 11 11 11 12 12 13 14 14 14 13 14 16 15 14 14 15 16 15 17
Wind_Direction
217 216 200 206 144 131 64 103 90 86 63 51 51 67 61 43 64 66 104 99 93 85 75 63 64 59 55 47 47 43 34 11 8 297 37 99 109 104 111 117 123 125 126 125 126 120 120 125 125
213 229 214 159 120 94 98 90 70 72 78 60 61 58 47 44 65 92 96 96 87 88 75 60 63 67 55 46 42 47 32 5 268 191 127 135 116 115 124 125 129 129 130 125 124 124 127 132 126
228 256 150 146 149 99 101 88 89 89 71 77 72 60 73 85 88 95 102 95 89 81 79 77 76 72 63 52 41 38 35 238 219 170 152 147 138 136 132 132 134 134 133 128 127 126 126 132 129
266 238 213 160 112 111 96 100 107 66 60 67 67 48 74 81 85 101 99 88 84 77 85 86 82 71 65 60 58 34 23 224 181 173 174 169 152 142 141 141 140 138 133 131 130 128 125 124 124
324 198 180 137 127 97 100 105 88 82 79 64 69 85 79 86 90 99 99 90 81 79 91 89 84 82 71 68 47 10 225 205 184 173 177 165 155 151 150 146 145 141 139 136 134 131 126 122 122
121 179 158 121 96 103 100 102 98 90 86 81 80 84 89 99 99 102 100 93 85 89 95 94 99 101 87 60 38 267 228 186 167 171 173 166 161 157 153 149 149 147 146 144 142 137 133 131 132
197 149 148 147 102 99 114 105 108 95 92 96 93 86 103 105 105 107 106 96 88 84 94 101 111 113 95 83 74 210 185 167 160 174 177 171 165 161 156 153 151 147 145 146 146 143 140 136 141
153 156 145 125 113 110 104 93 101 95 95 103 95 99 107 112 108 99 98 100 96 99 101 108 120 119 114 118 138 150 146 144 145 165 171 166 163 169 169 164 161 157 147 146 152 153 154 147 145
184 142 146 130 121 108 96 49 59 83 104 111 111 103 108 118 114 107 106 107 105 112 107 117 123 123 119 125 137 142 146 146 143 153 170 165 171 176 168 169 165 164 171 164 157 159 171 178 170
144 153 137 107 135 92 77 81 96 103 91 86 90 98 109 111 117 112 104 113 118 120 117 123 125 130 123 130 132 141 145 139 133 141 145 165 191 164 178 209 180 176 187 209 216 199 182 178 173
186 142 120 122 138 80 84 105 102 99 96 99 100 106 113 118 121 123 116 120 128 131 128 123 127 128 133 127 130 142 146 145 141 151 270 284 234 259 358 75 133 174 303 297 259 236 206 150 160
175 173 173 130 128 73 80 86 45 96 92 100 100 110 116 123 127 130 123 122 125 134 127 123 123 128 126 130 127 139 150 159 135 48 360 337 330 316 218 147 337 243 272 331 268 228 209 181 162
163 167 160 96 54 68 92 55 29 39 91 95 102 116 122 130 131 127 118 118 119 124 121 121 124 130 121 133 139 148 150 132 121 89 37 289 84 110 146 199 118 142 95 74 141 177 182 199 164
134 151 51 52 76 82 66 69 58 50 94 98 105 121 127 135 134 108 106 109 114 106 114 97 107 107 87 91 112 108 104 107 164 94 84 93 91 123 106 138 142 60 151 121 131 171 163 323 292
259 182 77 62 102 86 87 36 34 65 94 98 105 125 133 133 124 109 105 113 112 111 112 108 123 96 99 144 170 59 113 110 92 112 104 115 93 29 75 111 119 102 143 110 136 27 360 347 317
283 295 344 31 86 80 63 54 103 20 82 91 107 130 138 143 118 108 108 110 114 113 115 109 128 123 115 169 165 64 98 129 115 132 101 89 79 52 16 4 31 70 46 43 11 3 351 26 290
296 35 339 64 198 37 344 57 157 131 121 114 115 134 134 135 124 115 108 111 112 118 118 116 118 122 132 144 123 66 23 155 111 79 150 103 93 67 19 355 345 343 356 352 345 355 3 352 323
344 319 300 324 219 151 41 6 126 130 137 141 127 125 137 135 126 125 119 117 109 121 124 118 124 120 121 126 117 60 22 70 44 96 19 85 61 21 8 357 353 353 347 344 337 334 337 337 327
358 337 341 260 248 224 188 51 118 144 133 148 142 138 139 142 139 135 130 124 120 125 123 120 134 128 116 118 129 89 357 13 18 356 346 42 10 359 344 341 341 342 341 338 340 336 334 333 322
348 319 284 255 240 236 3 354 311 258 279 313 266 154 146 147 148 145 138 130 132 133 131 126 126 135 125 121 98 90 25 351 344 348 356 32 4 354 350 343 333 331 339 340 340 328 334 338 334
318 333 95 204 238 319 332 331 334 319 306 295 273 272 163 160 147 147 143 138 136 139 138 136 143 139 136 119 75 346 327 327 332 341 340 339 333 335 335 336 336 336 337 339 341 338 337 334 336
341 100 105 169 317 310 321 320 355 349 340 321 265 240 207 168 143 147 145 139 142 144 144 147 144 147 149 129 51 335 330 331 337 340 344 343 342 339 332 336 337 342 340 345 345 346 344 340 338
45 73 130 118 334 333 332 316 316 352 356 53 187 198 196 170 150 145 147 144 148 149 145 148 150 142 141 147 142 3 339 342 340 335 336 337 329 330 328 329 339 344 338 342 346 340 342 346 346
334 351 352 330 338 318 337 328 325 333 20 140 168 196 263 175 156 154 151 149 152 155 152 149 150 144 122 71 18 2 352 340 338 340 340 336 327 327 333 331 321 342 347 356 4 333 337 341 342
326 313 312 310 318 312 339 327 338 42 7 351 323 295 277 225 151 148 151 158 159 159 158 157 141 107 30 36 21 355 350 345 348 352 351 353 347 345 357 348 344 352 358 20 16 10 347 343 333
288 318 311 305 303 314 333 318 337 10 15 22 15 341 260 42 27 352 150 155 140 185 172 127 120 69 34 5 4 4 0 10 4 356 5 6 12 15 12 29 6 10 6 355 357 357 4 359 350
324 300 326 307 305 310 329 334 343 354 8 18 17 343 26 18 12 359 17 47 46 23 341 156 106 92 44 1 3 357 360 357 359 5 12 19 26 26 20 19 11 6 353 348 354 345 346 353 344
320 322 319 320 305 304 316 320 312 333 339 1 20 57 22 331 359 8 5 29 35 44 46 61 47 30 3 359 351 358 359 358 3 10 13 19 26 30 36 33 21 19 20 12 9 351 348 358 359
322 304 304 307 311 311 308 319 334 5 69 66 44 7 356 347 5 20 29 39 41 43 44 41 26 356 348 343 347 352 353 358 7 15 20 22 26 27 24 23 24 10 5 355 351 355 350 346 343
331 326 325 306 299 304 311 316 345 3 355 356 344 358 17 18 19 15 26 44 40 45 39 12 350 344 345 346 348 356 10 15 13 13 20 19 16 14 16 15 7 351 350 347 342 335 333 337 332